ASA6532 KVNY-KMKG

Flight info

Callsign ASA6532
Flight time 3h 35m
Altitude 37000
Route HARYS5 LAS BAWER LARVE EKR CHE CYS J148 MCW J16 BAE
Aircraft B738/M-SDE2E3FGHIRWXY/LB1

Departure

Time 2026-05-04 01:34
Airport Van Nuys Airport (KVNY)

Arrival

Time 2026-05-04 05:09
Airport Muskegon County Airport (KMKG)
Time Latitude Longitude Altitude Speed Heading
2026-05-04 00:54 34.21873 -118.49675 812 ft 0 kts 82°
2026-05-04 01:28 34.21872 -118.49661 812 ft 4 kts 100°
2026-05-04 01:28 34.21829 -118.49632 811 ft 10 kts 176°
2026-05-04 01:28 34.21773 -118.49613 810 ft 9 kts 133°
2026-05-04 01:29 34.21755 -118.49545 808 ft 9 kts 99°
2026-05-04 01:29 34.21745 -118.49465 807 ft 10 kts 99°
2026-05-04 01:29 34.21734 -118.49380 805 ft 10 kts 99°
2026-05-04 01:29 34.21722 -118.49295 804 ft 10 kts 98°
2026-05-04 01:30 34.21742 -118.49234 805 ft 7 kts 22°
2026-05-04 01:30 34.21792 -118.49233 806 ft 8 kts 354°
2026-05-04 01:30 34.21845 -118.49233 807 ft 5 kts 13°
2026-05-04 01:30 34.21853 -118.49229 807 ft 0 kts 25°
2026-05-04 01:31 34.21854 -118.49229 807 ft 0 kts 25°
2026-05-04 01:32 34.21877 -118.49187 808 ft 10 kts 73°
2026-05-04 01:32 34.21868 -118.49127 808 ft 6 kts 150°
2026-05-04 01:32 34.21857 -118.49123 807 ft 0 kts 170°
2026-05-04 01:33 34.21855 -118.49123 807 ft 2 kts 170°
2026-05-04 01:33 34.21709 -118.49107 803 ft 54 kts 175°
2026-05-04 01:34 34.21083 -118.49047 793 ft 123 kts 175°
2026-05-04 01:34 34.20054 -118.48950 941 ft 165 kts 173°
2026-05-04 01:34 34.18878 -118.48551 1414 ft 187 kts 150°
2026-05-04 01:34 34.17815 -118.47528 2041 ft 205 kts 138°
2026-05-04 01:35 34.16781 -118.46256 2539 ft 218 kts 135°
2026-05-04 01:35 34.15768 -118.44861 3068 ft 226 kts 126°
2026-05-04 01:35 34.14932 -118.43125 3287 ft 250 kts 122°
2026-05-04 01:35 34.14004 -118.41288 3790 ft 260 kts 121°
2026-05-04 01:36 34.13085 -118.39408 4027 ft 259 kts 121°
2026-05-04 01:36 34.12175 -118.37517 4005 ft 261 kts 121°
2026-05-04 01:36 34.11270 -118.35625 4018 ft 262 kts 118°
2026-05-04 01:36 34.10785 -118.33512 4011 ft 265 kts 92°
2026-05-04 01:37 34.11197 -118.31362 4018 ft 266 kts 63°
2026-05-04 01:37 34.12415 -118.29689 4051 ft 269 kts 34°
2026-05-04 01:37 34.14171 -118.28876 4551 ft 273 kts
2026-05-04 01:37 34.16074 -118.28862 5276 ft 276 kts 355°
2026-05-04 01:38 34.18013 -118.29121 5885 ft 282 kts 353°
2026-05-04 01:38 34.19978 -118.29427 6547 ft 287 kts 352°
2026-05-04 01:38 34.21971 -118.29737 7233 ft 291 kts 352°
2026-05-04 01:38 34.23978 -118.30039 7967 ft 294 kts 351°
2026-05-04 01:39 34.26024 -118.30339 8643 ft 298 kts 349°
2026-05-04 01:39 34.28103 -118.30636 9302 ft 304 kts 349°
2026-05-04 01:39 34.30224 -118.30933 10065 ft 307 kts 350°
2026-05-04 01:39 34.32359 -118.31209 10629 ft 315 kts 350°
2026-05-04 01:40 34.34613 -118.31529 10842 ft 337 kts 350°
2026-05-04 01:40 34.36998 -118.31868 11233 ft 351 kts 350°
2026-05-04 01:40 34.39436 -118.32209 11930 ft 353 kts 350°
2026-05-04 01:40 34.41892 -118.32552 12613 ft 358 kts 350°
2026-05-04 01:41 34.44394 -118.32810 13323 ft 365 kts 359°
2026-05-04 01:41 34.46900 -118.32212 14022 ft 373 kts 20°
2026-05-04 01:41 34.49155 -118.30626 14674 ft 380 kts 38°
2026-05-04 01:41 34.51180 -118.28590 15313 ft 385 kts 40°
2026-05-04 01:42 34.53197 -118.26493 15972 ft 389 kts 40°
2026-05-04 01:42 34.55273 -118.24344 16645 ft 394 kts 39°
2026-05-04 01:42 34.57381 -118.22182 17285 ft 400 kts 38°
2026-05-04 01:42 34.59531 -118.20018 17936 ft 404 kts 38°
2026-05-04 01:43 34.61716 -118.17830 18504 ft 409 kts 37°
2026-05-04 01:43 34.63917 -118.15592 18897 ft 417 kts 40°
2026-05-04 01:43 34.65807 -118.12908 18929 ft 420 kts 58°
2026-05-04 01:43 34.67077 -118.09724 18929 ft 420 kts 73°
2026-05-04 01:44 34.67737 -118.06289 18935 ft 419 kts 82°
2026-05-04 01:44 34.68259 -118.02783 18926 ft 424 kts 82°
2026-05-04 01:44 34.68818 -117.99247 18930 ft 427 kts 81°
2026-05-04 01:44 34.69332 -117.95695 18954 ft 429 kts 86°
2026-05-04 01:45 34.69584 -117.92069 19382 ft 432 kts 89°
2026-05-04 01:45 34.69759 -117.88427 20028 ft 433 kts 90°
2026-05-04 01:45 34.70136 -117.81030 20943 ft 446 kts 89°
2026-05-04 01:46 34.70359 -117.77250 21399 ft 452 kts 89°
2026-05-04 01:46 34.70580 -117.73412 21863 ft 457 kts 90°
2026-05-04 01:46 34.70742 -117.69537 22316 ft 462 kts 91°
2026-05-04 01:46 34.70876 -117.65618 22793 ft 467 kts 91°
2026-05-04 01:47 34.71012 -117.61654 23248 ft 473 kts 91°
2026-05-04 01:47 34.71160 -117.57628 23654 ft 478 kts 91°
2026-05-04 01:47 34.71319 -117.53588 24068 ft 482 kts 90°
2026-05-04 01:47 34.71744 -117.49517 24498 ft 488 kts 80°
2026-05-04 01:48 34.72667 -117.45531 24920 ft 491 kts 73°
2026-05-04 01:48 34.73728 -117.41645 25423 ft 491 kts 72°
2026-05-04 01:48 34.74829 -117.37704 25834 ft 494 kts 71°
2026-05-04 01:48 34.75934 -117.33727 26193 ft 498 kts 72°
2026-05-04 01:49 34.77031 -117.29712 26546 ft 502 kts 72°
2026-05-04 01:49 34.78117 -117.25671 26921 ft 505 kts 72°
2026-05-04 01:49 34.79201 -117.21588 27292 ft 507 kts 72°
2026-05-04 01:49 34.80280 -117.17497 27613 ft 510 kts 72°
2026-05-04 01:50 34.81365 -117.13369 27951 ft 514 kts 72°
2026-05-04 01:50 34.82087 -117.10620 28179 ft 516 kts 72°
2026-05-04 01:50 34.83180 -117.06454 28550 ft 518 kts 72°
2026-05-04 01:50 34.84280 -117.02262 28915 ft 521 kts 72°
2026-05-04 01:51 34.85384 -116.98047 29244 ft 524 kts 72°
2026-05-04 01:51 34.86480 -116.93861 29600 ft 526 kts 72°
2026-05-04 01:51 34.87593 -116.89601 29929 ft 528 kts 72°
2026-05-04 01:51 34.88709 -116.85326 30135 ft 532 kts 72°
2026-05-04 01:52 34.89834 -116.81007 30343 ft 536 kts 72°
2026-05-04 01:52 34.91055 -116.76707 30540 ft 539 kts 65°
2026-05-04 01:52 34.92736 -116.72619 30751 ft 540 kts 56°
2026-05-04 01:52 34.94828 -116.68839 30974 ft 537 kts 46°
2026-05-04 01:53 34.97306 -116.65442 31181 ft 536 kts 41°
2026-05-04 01:53 34.99876 -116.62136 31394 ft 539 kts 40°
2026-05-04 01:53 35.02478 -116.58817 31595 ft 542 kts 40°
2026-05-04 01:53 35.05076 -116.55482 31864 ft 543 kts 40°
2026-05-04 01:54 35.07617 -116.52179 32423 ft 538 kts 41°
2026-05-04 01:54 35.10164 -116.48834 32747 ft 539 kts 41°
2026-05-04 01:54 35.12718 -116.45463 32884 ft 543 kts 41°
2026-05-04 01:54 35.15287 -116.42059 33042 ft 547 kts 41°
2026-05-04 01:55 35.17863 -116.38638 33385 ft 546 kts 41°
2026-05-04 01:55 35.20428 -116.35222 33762 ft 545 kts 41°
2026-05-04 01:55 35.22992 -116.31810 34041 ft 544 kts 41°
2026-05-04 01:55 35.25551 -116.28405 34346 ft 543 kts 41°
2026-05-04 01:56 35.28102 -116.25009 34646 ft 541 kts 41°
2026-05-04 01:56 35.30640 -116.21626 35005 ft 538 kts 41°
2026-05-04 01:56 35.33162 -116.18262 35376 ft 534 kts 41°
2026-05-04 01:56 35.35670 -116.14914 35679 ft 533 kts 41°
2026-05-04 01:57 35.38171 -116.11574 35978 ft 532 kts 41°
2026-05-04 01:57 35.40667 -116.08237 36305 ft 530 kts 41°
2026-05-04 01:57 35.43152 -116.04910 36631 ft 528 kts 41°
2026-05-04 01:57 35.45611 -116.01615 36801 ft 529 kts 42°
2026-05-04 01:58 35.50603 -115.94922 36794 ft 534 kts 42°
2026-05-04 01:58 35.55568 -115.88238 36783 ft 525 kts 42°
2026-05-04 01:59 35.60460 -115.81645 36795 ft 522 kts 42°
2026-05-04 01:59 35.65353 -115.75028 36814 ft 523 kts 42°
2026-05-04 02:00 35.70220 -115.68348 36802 ft 525 kts 43°
2026-05-04 02:00 35.75083 -115.61640 36799 ft 526 kts 43°
2026-05-04 02:01 35.79953 -115.54921 36815 ft 526 kts 43°
2026-05-04 02:01 35.84835 -115.48181 36821 ft 527 kts 44°
2026-05-04 02:02 35.89712 -115.41432 36809 ft 527 kts 44°
2026-05-04 02:02 35.94581 -115.34679 36803 ft 526 kts 44°
2026-05-04 02:03 35.99433 -115.27938 36802 ft 525 kts 44°
2026-05-04 02:03 36.04274 -115.21199 36757 ft 524 kts 44°
2026-05-04 02:04 36.09036 -115.14401 36751 ft 525 kts 49°
2026-05-04 02:04 36.13270 -115.07034 36760 ft 526 kts 52°
2026-05-04 02:05 36.17340 -114.99533 36723 ft 525 kts 53°
2026-05-04 02:05 36.21443 -114.92050 36692 ft 524 kts 52°
2026-05-04 02:06 36.25575 -114.84620 36681 ft 524 kts 52°
2026-05-04 02:06 36.29717 -114.77200 36670 ft 524 kts 52°
2026-05-04 02:07 36.33827 -114.69820 36651 ft 524 kts 52°
2026-05-04 02:07 36.37960 -114.62377 36624 ft 523 kts 52°
2026-05-04 02:08 36.42085 -114.54924 36623 ft 524 kts 52°
2026-05-04 02:08 36.46206 -114.47464 36636 ft 524 kts 52°
2026-05-04 02:09 36.50325 -114.39991 36633 ft 525 kts 52°
2026-05-04 02:09 36.54452 -114.32488 36677 ft 526 kts 52°
2026-05-04 02:10 36.58580 -114.24967 36661 ft 528 kts 52°
2026-05-04 02:10 36.62718 -114.17409 36655 ft 529 kts 52°
2026-05-04 02:11 36.66858 -114.09831 36664 ft 529 kts 52°
2026-05-04 02:11 36.70991 -114.02249 36665 ft 529 kts 52°
2026-05-04 02:12 36.75120 -113.94657 36693 ft 528 kts 52°
2026-05-04 02:12 36.79236 -113.87072 36714 ft 528 kts 52°
2026-05-04 02:13 36.83356 -113.79461 36738 ft 528 kts 52°
2026-05-04 02:13 36.87460 -113.71865 36763 ft 528 kts 52°
2026-05-04 02:14 36.91551 -113.64276 36846 ft 526 kts 52°
2026-05-04 02:14 36.95632 -113.56688 36847 ft 526 kts 52°
2026-05-04 02:15 36.99713 -113.49084 36851 ft 526 kts 52°
2026-05-04 02:15 37.03755 -113.41533 36762 ft 526 kts 52°
2026-05-04 02:16 37.07820 -113.33924 36818 ft 526 kts 52°
2026-05-04 02:16 37.11881 -113.26305 36855 ft 526 kts 52°
2026-05-04 02:17 37.15942 -113.18668 36886 ft 526 kts 52°
2026-05-04 02:17 37.20000 -113.11019 36885 ft 527 kts 52°
2026-05-04 02:18 37.24034 -113.03399 36882 ft 527 kts 52°
2026-05-04 02:18 37.28097 -112.95718 36903 ft 530 kts 52°
2026-05-04 02:19 37.32177 -112.87968 36862 ft 530 kts 52°
2026-05-04 02:19 37.36217 -112.80274 36879 ft 525 kts 52°
2026-05-04 02:20 37.40229 -112.72623 36892 ft 523 kts 52°
2026-05-04 02:20 37.44225 -112.64991 36909 ft 521 kts 52°
2026-05-04 02:21 37.48201 -112.57372 36928 ft 520 kts 52°
2026-05-04 02:21 37.52167 -112.49761 36948 ft 520 kts 52°
2026-05-04 02:22 37.56132 -112.42130 37013 ft 521 kts 52°
2026-05-04 02:22 37.60101 -112.34477 37049 ft 523 kts 52°
2026-05-04 02:23 37.64102 -112.26808 37162 ft 522 kts 50°
2026-05-04 02:23 37.68519 -112.19557 37132 ft 522 kts 46°
2026-05-04 02:24 37.73064 -112.12477 37127 ft 523 kts 46°
2026-05-04 02:24 37.77618 -112.05303 37123 ft 524 kts 47°
2026-05-04 02:25 37.82132 -111.98071 37079 ft 524 kts 47°
2026-05-04 02:25 37.86636 -111.90800 37023 ft 525 kts 47°
2026-05-04 02:26 37.91130 -111.83530 36972 ft 525 kts 47°
2026-05-04 02:26 37.95592 -111.76303 36966 ft 523 kts 47°
2026-05-04 02:27 38.00074 -111.69032 36949 ft 522 kts 48°
2026-05-04 02:27 38.04520 -111.61802 36952 ft 519 kts 48°
2026-05-04 02:28 38.08950 -111.54580 36944 ft 517 kts 48°
2026-05-04 02:28 38.13354 -111.47387 36925 ft 515 kts 48°
2026-05-04 02:29 38.17741 -111.40206 36906 ft 513 kts 48°
2026-05-04 02:29 38.22107 -111.33044 36904 ft 512 kts 48°
2026-05-04 02:30 38.26468 -111.25875 36867 ft 513 kts 48°
2026-05-04 02:30 38.30803 -111.18736 36893 ft 514 kts 49°
2026-05-04 02:31 38.35193 -111.11483 36863 ft 514 kts 49°
2026-05-04 02:31 38.39559 -111.04256 36867 ft 515 kts 49°
2026-05-04 02:32 38.43897 -110.97061 36870 ft 515 kts 49°
2026-05-04 02:32 38.48231 -110.89855 36894 ft 514 kts 49°
2026-05-04 02:33 38.52578 -110.82613 36899 ft 514 kts 49°
2026-05-04 02:33 38.56923 -110.75357 36902 ft 514 kts 49°
2026-05-04 02:34 38.61257 -110.68101 36910 ft 513 kts 50°
2026-05-04 02:34 38.65578 -110.60851 36832 ft 511 kts 50°
2026-05-04 02:35 38.69881 -110.53618 36808 ft 509 kts 50°
2026-05-04 02:35 38.74155 -110.46418 36806 ft 506 kts 50°
2026-05-04 02:36 38.78402 -110.39245 36809 ft 504 kts 50°
2026-05-04 02:36 38.82634 -110.32084 36799 ft 503 kts 50°
2026-05-04 02:37 38.86858 -110.24919 36802 ft 503 kts 50°
2026-05-04 02:37 38.90365 -110.18958 36796 ft 503 kts 50°
2026-05-04 02:38 38.94583 -110.11774 36813 ft 504 kts 50°
2026-05-04 02:38 38.98807 -110.04563 36822 ft 506 kts 50°
2026-05-04 02:39 39.03037 -109.97326 36827 ft 507 kts 50°
2026-05-04 02:39 39.07185 -109.89953 36832 ft 509 kts 53°
2026-05-04 02:40 39.11112 -109.82353 36824 ft 510 kts 54°
2026-05-04 02:40 39.15009 -109.74707 36837 ft 511 kts 53°
2026-05-04 02:41 39.18930 -109.67071 36823 ft 510 kts 53°
2026-05-04 02:41 39.22852 -109.59457 36841 ft 509 kts 53°
2026-05-04 02:42 39.26738 -109.51922 36803 ft 500 kts 53°
2026-05-04 02:42 39.30569 -109.44472 36834 ft 498 kts 53°
2026-05-04 02:43 39.34391 -109.37016 36812 ft 498 kts 53°
2026-05-04 02:43 39.38206 -109.29557 36828 ft 498 kts 53°
2026-05-04 02:44 39.42020 -109.22081 36823 ft 498 kts 53°
2026-05-04 02:44 39.45833 -109.14587 36816 ft 499 kts 53°
2026-05-04 02:45 39.49642 -109.07074 36835 ft 498 kts 53°
2026-05-04 02:45 39.53441 -108.99585 36829 ft 497 kts 53°
2026-05-04 02:46 39.57204 -108.92138 36850 ft 496 kts 54°
2026-05-04 02:46 39.60953 -108.84694 36821 ft 489 kts 54°
2026-05-04 02:47 39.64655 -108.77331 36840 ft 487 kts 53°
2026-05-04 02:47 39.68335 -108.69973 36850 ft 485 kts 53°
2026-05-04 02:48 39.72017 -108.62633 36838 ft 485 kts 53°
2026-05-04 02:48 39.75686 -108.55300 36850 ft 484 kts 54°
2026-05-04 02:49 39.79346 -108.47958 36852 ft 484 kts 54°
2026-05-04 02:49 39.83005 -108.40594 36865 ft 485 kts 53°
2026-05-04 02:50 39.86668 -108.33210 36857 ft 486 kts 53°
2026-05-04 02:50 39.90336 -108.25797 36889 ft 488 kts 54°
2026-05-04 02:51 39.94003 -108.18366 36920 ft 487 kts 54°
2026-05-04 02:51 39.97662 -108.10934 36957 ft 487 kts 54°
2026-05-04 02:52 40.01312 -108.03505 37002 ft 486 kts 54°
2026-05-04 02:52 40.04948 -107.96086 37023 ft 485 kts 54°
2026-05-04 02:53 40.08993 -107.89138 36889 ft 477 kts 42°
2026-05-04 02:53 40.13625 -107.82947 36899 ft 476 kts 41°
2026-05-04 02:54 40.18271 -107.76762 36909 ft 476 kts 41°
2026-05-04 02:54 40.22847 -107.70565 36946 ft 476 kts 41°
2026-05-04 02:55 40.29717 -107.61167 36965 ft 476 kts 42°
2026-05-04 02:56 40.34288 -107.54900 36990 ft 475 kts 42°
2026-05-04 02:56 40.38850 -107.48635 37003 ft 474 kts 42°
2026-05-04 02:57 40.43399 -107.42374 37003 ft 474 kts 42°
2026-05-04 02:57 40.47934 -107.36122 37026 ft 473 kts 42°
2026-05-04 02:58 40.52089 -107.29399 37032 ft 478 kts 56°
2026-05-04 02:58 40.54775 -107.21398 37046 ft 480 kts 68°
2026-05-04 02:59 40.57046 -107.13139 37023 ft 480 kts 68°
2026-05-04 02:59 40.59323 -107.04889 37009 ft 479 kts 68°
2026-05-04 03:00 40.61615 -106.96727 36980 ft 479 kts 67°
2026-05-04 03:00 40.63936 -106.88516 36963 ft 479 kts 68°
2026-05-04 03:01 40.66255 -106.80297 37020 ft 479 kts 67°
2026-05-04 03:01 40.68572 -106.72053 37001 ft 480 kts 67°
2026-05-04 03:02 40.70883 -106.63791 36966 ft 481 kts 67°
2026-05-04 03:02 40.73189 -106.55529 36943 ft 480 kts 67°
2026-05-04 03:03 40.75485 -106.47272 36913 ft 480 kts 67°
2026-05-04 03:03 40.77778 -106.38998 36907 ft 481 kts 67°
2026-05-04 03:04 40.80075 -106.30686 36901 ft 482 kts 67°
2026-05-04 03:04 40.82362 -106.22380 36891 ft 482 kts 67°
2026-05-04 03:05 40.84652 -106.14037 36902 ft 483 kts 67°
2026-05-04 03:05 40.86920 -106.05742 36873 ft 483 kts 67°
2026-05-04 03:06 40.89198 -105.97387 36879 ft 483 kts 67°
2026-05-04 03:06 40.91467 -105.89036 36866 ft 482 kts 67°
2026-05-04 03:07 40.93725 -105.80699 36848 ft 481 kts 67°
2026-05-04 03:07 40.95970 -105.72379 36855 ft 480 kts 67°
2026-05-04 03:08 40.98209 -105.64056 36863 ft 479 kts 67°
2026-05-04 03:08 41.00433 -105.55760 36870 ft 478 kts 67°
2026-05-04 03:09 41.02647 -105.47476 36855 ft 477 kts 67°
2026-05-04 03:09 41.04853 -105.39192 36852 ft 476 kts 67°
2026-05-04 03:10 41.07052 -105.30908 36833 ft 477 kts 67°
2026-05-04 03:10 41.09245 -105.22617 36837 ft 477 kts 67°
2026-05-04 03:11 41.11432 -105.14321 36825 ft 476 kts 67°
2026-05-04 03:11 41.13613 -105.06021 36832 ft 476 kts 67°
2026-05-04 03:12 41.15786 -104.97721 36977 ft 476 kts 67°
2026-05-04 03:12 41.17952 -104.89419 37012 ft 476 kts 67°
2026-05-04 03:13 41.20115 -104.81103 37001 ft 477 kts 67°
2026-05-04 03:13 41.22235 -104.72761 37000 ft 477 kts 69°
2026-05-04 03:14 41.24207 -104.64398 36967 ft 478 kts 69°
2026-05-04 03:14 41.26172 -104.55948 36925 ft 478 kts 69°
2026-05-04 03:15 41.28143 -104.47509 36910 ft 478 kts 69°
2026-05-04 03:15 41.30123 -104.39058 36862 ft 479 kts 69°
2026-05-04 03:16 41.32102 -104.30588 36862 ft 479 kts 69°
2026-05-04 03:16 41.34074 -104.22115 36861 ft 479 kts 69°
2026-05-04 03:17 41.36039 -104.13640 36863 ft 480 kts 69°
2026-05-04 03:17 41.37999 -104.05150 36881 ft 479 kts 69°
2026-05-04 03:18 41.39951 -103.96664 36891 ft 479 kts 69°
2026-05-04 03:18 41.41896 -103.88175 36899 ft 479 kts 69°
2026-05-04 03:19 41.43834 -103.79685 36913 ft 479 kts 69°
2026-05-04 03:19 41.45766 -103.71190 36895 ft 478 kts 69°
2026-05-04 03:20 41.47688 -103.62705 36888 ft 478 kts 69°
2026-05-04 03:20 41.49599 -103.54236 36867 ft 477 kts 69°
2026-05-04 03:21 41.51502 -103.45770 36871 ft 476 kts 69°
2026-05-04 03:21 41.53397 -103.37310 36865 ft 475 kts 69°
2026-05-04 03:22 41.55284 -103.28854 36852 ft 475 kts 69°
2026-05-04 03:22 41.57160 -103.20407 36849 ft 474 kts 69°
2026-05-04 03:23 41.59029 -103.11967 36867 ft 474 kts 69°
2026-05-04 03:23 41.60879 -103.03573 36845 ft 474 kts 70°
2026-05-04 03:24 41.62734 -102.95134 36843 ft 473 kts 70°
2026-05-04 03:24 41.64579 -102.86701 36843 ft 473 kts 70°
2026-05-04 03:25 41.66420 -102.78252 36839 ft 473 kts 70°
2026-05-04 03:25 41.68252 -102.69807 36846 ft 473 kts 70°
2026-05-04 03:26 41.69773 -102.62776 36843 ft 473 kts 70°
2026-05-04 03:26 41.71592 -102.54331 36843 ft 472 kts 70°
2026-05-04 03:27 41.73406 -102.45879 36849 ft 472 kts 70°
2026-05-04 03:27 41.75209 -102.37441 36857 ft 471 kts 70°
2026-05-04 03:28 41.76999 -102.29030 36834 ft 469 kts 70°
2026-05-04 03:28 41.78780 -102.20631 36838 ft 467 kts 70°
2026-05-04 03:29 41.80547 -102.12264 36844 ft 466 kts 70°
2026-05-04 03:29 41.82301 -102.03924 36866 ft 465 kts 70°
2026-05-04 03:30 41.84050 -101.95582 36846 ft 464 kts 70°
2026-05-04 03:30 41.85791 -101.87240 36842 ft 464 kts 70°
2026-05-04 03:31 41.87522 -101.78912 36842 ft 464 kts 70°
2026-05-04 03:31 41.89248 -101.70575 36837 ft 464 kts 70°
2026-05-04 03:32 41.90971 -101.62216 36842 ft 464 kts 70°
2026-05-04 03:32 41.92678 -101.53906 36833 ft 465 kts 71°
2026-05-04 03:33 41.94392 -101.45523 36835 ft 466 kts 71°
2026-05-04 03:33 41.96090 -101.37185 36829 ft 466 kts 71°
2026-05-04 03:34 41.97795 -101.28779 36841 ft 466 kts 71°
2026-05-04 03:34 41.99497 -101.20356 36826 ft 467 kts 71°
2026-05-04 03:35 42.01192 -101.11930 36829 ft 467 kts 71°
2026-05-04 03:35 42.02878 -101.03511 36830 ft 466 kts 71°
2026-05-04 03:36 42.04559 -100.95085 36846 ft 466 kts 71°
2026-05-04 03:36 42.06232 -100.86663 36866 ft 465 kts 71°
2026-05-04 03:37 42.07895 -100.78254 36882 ft 465 kts 71°
2026-05-04 03:37 42.09552 -100.69843 36897 ft 464 kts 71°
2026-05-04 03:38 42.11199 -100.61445 36901 ft 464 kts 71°
2026-05-04 03:38 42.12842 -100.53035 36895 ft 464 kts 71°
2026-05-04 03:39 42.14476 -100.44633 36882 ft 464 kts 71°
2026-05-04 03:39 42.16103 -100.36230 36856 ft 463 kts 72°
2026-05-04 03:40 42.17722 -100.27836 36807 ft 462 kts 72°
2026-05-04 03:40 42.19329 -100.19465 36832 ft 461 kts 72°
2026-05-04 03:41 42.20929 -100.11098 36812 ft 460 kts 72°
2026-05-04 03:41 42.22519 -100.02740 36807 ft 460 kts 72°
2026-05-04 03:42 42.24102 -99.94391 36808 ft 459 kts 72°
2026-05-04 03:42 42.25677 -99.86046 36815 ft 458 kts 72°
2026-05-04 03:43 42.27244 -99.77707 36822 ft 458 kts 72°
2026-05-04 03:43 42.28794 -99.69424 36808 ft 458 kts 72°
2026-05-04 03:44 42.30347 -99.61083 36809 ft 458 kts 72°
2026-05-04 03:44 42.31896 -99.52730 36809 ft 458 kts 72°
2026-05-04 03:45 42.33439 -99.44376 36819 ft 459 kts 72°
2026-05-04 03:45 42.34979 -99.35998 36811 ft 459 kts 72°
2026-05-04 03:46 42.36505 -99.27660 36809 ft 460 kts 72°
2026-05-04 03:46 42.38036 -99.19257 36809 ft 460 kts 72°
2026-05-04 03:47 42.39562 -99.10842 36812 ft 461 kts 72°
2026-05-04 03:47 42.41083 -99.02416 36828 ft 461 kts 72°
2026-05-04 03:48 42.42600 -98.93976 36829 ft 462 kts 72°
2026-05-04 03:48 42.44112 -98.85524 36838 ft 462 kts 72°
2026-05-04 03:49 42.45616 -98.77074 36844 ft 462 kts 72°
2026-05-04 03:49 42.47117 -98.68614 36858 ft 462 kts 73°
2026-05-04 03:50 42.48422 -98.60078 36845 ft 464 kts 76°
2026-05-04 03:50 42.49573 -98.51477 36836 ft 464 kts 76°
2026-05-04 03:51 42.50726 -98.42881 36815 ft 463 kts 76°
2026-05-04 03:51 42.51898 -98.34311 36839 ft 463 kts 76°
2026-05-04 03:52 42.53068 -98.25798 36829 ft 463 kts 76°
2026-05-04 03:52 42.54241 -98.17241 36826 ft 463 kts 76°
2026-05-04 03:53 42.55409 -98.08657 36822 ft 463 kts 76°
2026-05-04 03:53 42.56571 -98.00064 36834 ft 462 kts 76°
2026-05-04 03:54 42.57724 -97.91482 36839 ft 463 kts 76°
2026-05-04 03:54 42.58873 -97.82881 36834 ft 463 kts 76°
2026-05-04 03:55 42.60014 -97.74287 36830 ft 463 kts 76°
2026-05-04 03:55 42.61150 -97.65684 36833 ft 463 kts 76°
2026-05-04 03:56 42.62270 -97.57142 36851 ft 462 kts 76°
2026-05-04 03:56 42.63392 -97.48539 36835 ft 462 kts 76°
2026-05-04 03:57 42.64507 -97.39937 36837 ft 462 kts 76°
2026-05-04 03:57 42.65614 -97.31349 36831 ft 462 kts 76°
2026-05-04 03:58 42.67263 -97.18451 36817 ft 462 kts 76°
2026-05-04 03:58 42.68354 -97.09848 36821 ft 462 kts 76°
2026-05-04 03:59 42.69438 -97.01246 36809 ft 462 kts 77°
2026-05-04 03:59 42.70516 -96.92640 36815 ft 462 kts 77°
2026-05-04 04:00 42.71588 -96.84025 36828 ft 462 kts 77°
2026-05-04 04:00 42.72654 -96.75405 36810 ft 462 kts 77°
2026-05-04 04:01 42.73714 -96.66780 36808 ft 463 kts 77°
2026-05-04 04:01 42.74768 -96.58151 36812 ft 463 kts 77°
2026-05-04 04:02 42.75816 -96.49507 36801 ft 463 kts 77°
2026-05-04 04:02 42.76858 -96.40861 36815 ft 463 kts 77°
2026-05-04 04:03 42.77887 -96.32264 36809 ft 464 kts 77°
2026-05-04 04:03 42.78918 -96.23599 36804 ft 463 kts 77°
2026-05-04 04:04 42.79941 -96.14933 36805 ft 463 kts 77°
2026-05-04 04:04 42.80957 -96.06274 36820 ft 463 kts 77°
2026-05-04 04:05 42.81968 -95.97600 36806 ft 464 kts 77°
2026-05-04 04:05 42.82972 -95.88926 36805 ft 464 kts 77°
2026-05-04 04:06 42.83969 -95.80249 36799 ft 464 kts 77°
2026-05-04 04:06 42.84960 -95.71570 36808 ft 463 kts 77°
2026-05-04 04:07 42.85944 -95.62894 36813 ft 463 kts 78°
2026-05-04 04:07 42.86921 -95.54215 36807 ft 463 kts 78°
2026-05-04 04:08 42.87893 -95.45525 36817 ft 463 kts 78°
2026-05-04 04:08 42.88855 -95.36850 36817 ft 463 kts 78°
2026-05-04 04:09 42.89813 -95.28160 36818 ft 464 kts 78°
2026-05-04 04:09 42.90765 -95.19464 36812 ft 464 kts 77°
2026-05-04 04:10 42.91711 -95.10756 36805 ft 464 kts 78°
2026-05-04 04:10 42.92644 -95.02103 36809 ft 464 kts 78°
2026-05-04 04:11 42.93577 -94.93391 36825 ft 464 kts 78°
2026-05-04 04:11 42.94504 -94.84664 36822 ft 465 kts 78°
2026-05-04 04:12 42.95426 -94.75929 36819 ft 465 kts 78°
2026-05-04 04:12 42.96341 -94.67189 36816 ft 465 kts 78°
2026-05-04 04:13 42.97249 -94.58432 36808 ft 465 kts 78°
2026-05-04 04:13 42.98149 -94.49679 36809 ft 466 kts 78°
2026-05-04 04:14 42.98894 -94.42392 36802 ft 466 kts 78°
2026-05-04 04:14 42.99783 -94.33633 36796 ft 466 kts 78°
2026-05-04 04:15 43.00672 -94.24799 36796 ft 466 kts 78°
2026-05-04 04:15 43.01544 -94.16073 36810 ft 467 kts 78°
2026-05-04 04:16 43.02415 -94.07285 36803 ft 467 kts 78°
2026-05-04 04:16 43.03280 -93.98493 36804 ft 467 kts 78°
2026-05-04 04:17 43.04138 -93.89693 36801 ft 467 kts 78°
2026-05-04 04:17 43.04990 -93.80886 36802 ft 467 kts 78°
2026-05-04 04:18 43.05835 -93.72083 36801 ft 468 kts 78°
2026-05-04 04:18 43.06674 -93.63265 36802 ft 468 kts 78°
2026-05-04 04:19 43.07506 -93.54439 36803 ft 468 kts 78°
2026-05-04 04:19 43.08333 -93.45607 36786 ft 468 kts 78°
2026-05-04 04:20 43.09152 -93.36783 36788 ft 468 kts 78°
2026-05-04 04:20 43.09743 -93.27896 36792 ft 470 kts 84°
2026-05-04 04:21 43.09943 -93.18946 36784 ft 471 kts 85°
2026-05-04 04:21 43.10101 -93.09987 36783 ft 471 kts 85°
2026-05-04 04:22 43.10287 -93.01033 36791 ft 471 kts 84°
2026-05-04 04:22 43.10489 -92.92076 36782 ft 471 kts 84°
2026-05-04 04:23 43.10689 -92.83107 36784 ft 471 kts 84°
2026-05-04 04:23 43.10882 -92.74150 36788 ft 471 kts 84°
2026-05-04 04:24 43.11067 -92.65188 36803 ft 471 kts 84°
2026-05-04 04:24 43.11244 -92.56225 36789 ft 472 kts 84°
2026-05-04 04:25 43.11414 -92.47304 36788 ft 472 kts 84°
2026-05-04 04:25 43.11577 -92.38330 36790 ft 472 kts 84°
2026-05-04 04:26 43.11733 -92.29349 36794 ft 472 kts 85°
2026-05-04 04:26 43.11883 -92.20363 36794 ft 472 kts 85°
2026-05-04 04:27 43.12026 -92.11372 36789 ft 473 kts 85°
2026-05-04 04:27 43.12161 -92.02381 36789 ft 473 kts 85°
2026-05-04 04:28 43.12290 -91.93385 36787 ft 473 kts 85°
2026-05-04 04:28 43.12412 -91.84378 36783 ft 473 kts 85°
2026-05-04 04:29 43.12527 -91.75383 36782 ft 473 kts 85°
2026-05-04 04:29 43.12634 -91.66361 36779 ft 474 kts 85°
2026-05-04 04:30 43.12735 -91.57340 36783 ft 474 kts 85°
2026-05-04 04:30 43.12828 -91.48325 36791 ft 474 kts 85°
2026-05-04 04:31 43.12915 -91.39359 36795 ft 474 kts 85°
2026-05-04 04:31 43.12995 -91.30272 36794 ft 474 kts 85°
2026-05-04 04:32 43.13068 -91.21308 36797 ft 474 kts 85°
2026-05-04 04:32 43.13136 -91.12289 36807 ft 474 kts 85°
2026-05-04 04:33 43.13205 -91.03259 36796 ft 474 kts 85°
2026-05-04 04:33 43.13269 -90.94237 36794 ft 474 kts 85°
2026-05-04 04:34 43.13326 -90.85206 36790 ft 474 kts 85°
2026-05-04 04:34 43.13374 -90.76177 36803 ft 474 kts 85°
2026-05-04 04:35 43.13416 -90.67142 36794 ft 474 kts 85°
2026-05-04 04:35 43.13450 -90.58113 36785 ft 474 kts 85°
2026-05-04 04:36 43.13478 -90.49078 36786 ft 474 kts 85°
2026-05-04 04:36 43.13499 -90.40052 36776 ft 474 kts 85°
2026-05-04 04:37 43.13502 -90.21980 36773 ft 475 kts 86°
2026-05-04 04:38 43.13490 -90.12933 36779 ft 475 kts 86°
2026-05-04 04:38 43.13473 -90.03899 36773 ft 475 kts 86°
2026-05-04 04:39 43.13449 -89.94856 36764 ft 475 kts 86°
2026-05-04 04:39 43.13419 -89.85805 36760 ft 476 kts 86°
2026-05-04 04:40 43.13380 -89.76745 36763 ft 476 kts 86°
2026-05-04 04:40 43.13335 -89.67734 36765 ft 476 kts 86°
2026-05-04 04:41 43.13282 -89.58613 36766 ft 476 kts 86°
2026-05-04 04:41 43.13223 -89.49608 36769 ft 476 kts 86°
2026-05-04 04:42 43.13157 -89.40533 36767 ft 477 kts 86°
2026-05-04 04:42 43.13083 -89.31465 36769 ft 476 kts 87°
2026-05-04 04:43 43.12998 -89.22393 36792 ft 477 kts 87°
2026-05-04 04:43 43.12904 -89.13256 36768 ft 477 kts 87°
2026-05-04 04:44 43.12857 -89.08772 36525 ft 481 kts 87°
2026-05-04 04:44 43.12806 -89.04185 35986 ft 481 kts 87°
2026-05-04 04:44 43.12753 -88.99610 35380 ft 481 kts 87°
2026-05-04 04:44 43.12699 -88.95028 34732 ft 482 kts 87°
2026-05-04 04:45 43.12642 -88.90432 34064 ft 484 kts 87°
2026-05-04 04:45 43.12584 -88.85813 33290 ft 487 kts 87°
2026-05-04 04:45 43.12523 -88.81182 32701 ft 485 kts 87°
2026-05-04 04:47 43.12129 -88.54220 29626 ft 460 kts 87°
2026-05-04 04:47 43.12061 -88.49871 29084 ft 455 kts 87°
2026-05-04 04:47 43.11991 -88.45558 28595 ft 450 kts 87°
2026-05-04 04:47 43.11921 -88.41296 28053 ft 446 kts 87°
2026-05-04 04:48 43.11851 -88.37076 27560 ft 442 kts 88°
2026-05-04 04:49 43.12867 -88.20817 25561 ft 420 kts 72°
2026-05-04 04:49 43.13523 -88.16978 25066 ft 418 kts 72°
2026-05-04 04:49 43.14185 -88.13065 24576 ft 415 kts 73°
2026-05-04 04:49 43.14818 -88.09274 24113 ft 413 kts 73°
2026-05-04 04:50 43.15458 -88.05395 23631 ft 412 kts 73°
2026-05-04 04:50 43.16083 -88.01574 23108 ft 410 kts 73°
2026-05-04 04:50 43.16701 -87.97771 22560 ft 408 kts 73°
2026-05-04 04:50 43.17312 -87.93996 22063 ft 405 kts 73°
2026-05-04 04:51 43.17916 -87.90248 21575 ft 402 kts 73°
2026-05-04 04:51 43.18508 -87.86564 21109 ft 399 kts 73°
2026-05-04 04:51 43.19101 -87.82872 20631 ft 396 kts 73°
2026-05-04 04:51 43.19689 -87.79200 20160 ft 394 kts 73°
2026-05-04 04:52 43.20274 -87.75546 19697 ft 391 kts 74°
2026-05-04 04:52 43.20855 -87.71907 19238 ft 389 kts 73°
2026-05-04 04:52 43.21431 -87.68289 18792 ft 388 kts 73°
2026-05-04 04:52 43.22004 -87.64683 18329 ft 386 kts 74°
2026-05-04 04:53 43.22574 -87.61091 17844 ft 385 kts 74°
2026-05-04 04:53 43.23140 -87.57514 17338 ft 383 kts 74°
2026-05-04 04:53 43.23698 -87.53974 17027 ft 376 kts 74°
2026-05-04 04:53 43.24247 -87.50486 16618 ft 373 kts 74°
2026-05-04 04:54 43.24793 -87.47013 16170 ft 370 kts 74°
2026-05-04 04:54 43.25334 -87.43562 15727 ft 369 kts 75°
2026-05-04 04:54 43.25870 -87.40141 15285 ft 367 kts 75°
2026-05-04 04:54 43.26404 -87.36729 14856 ft 365 kts 75°
2026-05-04 04:55 43.26934 -87.33333 14425 ft 364 kts 75°
2026-05-04 04:55 43.27460 -87.29950 14003 ft 362 kts 75°
2026-05-04 04:55 43.27986 -87.26564 13560 ft 361 kts 75°
2026-05-04 04:55 43.28506 -87.23207 13082 ft 360 kts 76°
2026-05-04 04:56 43.29025 -87.19851 12613 ft 358 kts 76°
2026-05-04 04:56 43.29539 -87.16519 12167 ft 356 kts 76°
2026-05-04 04:56 43.30049 -87.13203 11732 ft 354 kts 76°
2026-05-04 04:56 43.30555 -87.09909 11298 ft 352 kts 76°
2026-05-04 04:57 43.31057 -87.06637 10871 ft 349 kts 76°
2026-05-04 04:57 43.31556 -87.03379 10447 ft 348 kts 76°
2026-05-04 04:57 43.32043 -87.00184 10258 ft 338 kts 76°
2026-05-04 04:57 43.32509 -86.97119 10104 ft 326 kts 76°
2026-05-04 04:58 43.32966 -86.94101 9966 ft 311 kts 75°
2026-05-04 04:58 43.33395 -86.91267 9793 ft 299 kts 75°
2026-05-04 04:58 43.33815 -86.88506 9403 ft 299 kts 75°
2026-05-04 04:58 43.34240 -86.85710 9062 ft 299 kts 75°
2026-05-04 04:59 43.34662 -86.82922 8725 ft 298 kts 75°
2026-05-04 04:59 43.35084 -86.80132 8402 ft 298 kts 75°
2026-05-04 04:59 43.35503 -86.77350 8087 ft 297 kts 76°
2026-05-04 04:59 43.35920 -86.74577 7775 ft 296 kts 76°
2026-05-04 05:00 43.36337 -86.71802 7458 ft 296 kts 76°
2026-05-04 05:00 43.36752 -86.69032 7091 ft 297 kts 76°
2026-05-04 05:00 43.37586 -86.63447 6356 ft 295 kts 76°
2026-05-04 05:01 43.37994 -86.60706 6035 ft 291 kts 76°
2026-05-04 05:01 43.38399 -86.57984 5711 ft 290 kts 76°
2026-05-04 05:01 43.38803 -86.55270 5392 ft 290 kts 76°
2026-05-04 05:01 43.39205 -86.52556 5068 ft 290 kts 76°
2026-05-04 05:02 43.39609 -86.49826 4760 ft 290 kts 76°
2026-05-04 05:02 43.39974 -86.47102 4453 ft 291 kts 84°
2026-05-04 05:02 43.39654 -86.44407 4296 ft 284 kts 116°
2026-05-04 05:02 43.38974 -86.42913 4215 ft 275 kts 135°
2026-05-04 05:03 43.37501 -86.41385 4087 ft 260 kts 160°
2026-05-04 05:03 43.35822 -86.40709 3972 ft 244 kts 181°
2026-05-04 05:04 43.31152 -86.40704 3678 ft 213 kts 163°
2026-05-04 05:04 43.29981 -86.39497 3559 ft 209 kts 141°
2026-05-04 05:04 43.28935 -86.38156 3375 ft 203 kts 142°
2026-05-04 05:06 43.22283 -86.29757 1897 ft 156 kts 144°
2026-05-04 05:06 43.21543 -86.28790 1740 ft 135 kts 146°
2026-05-04 05:06 43.20849 -86.27939 1571 ft 134 kts 147°
2026-05-04 05:07 43.20160 -86.27092 1380 ft 132 kts 146°
2026-05-04 05:07 43.19485 -86.26235 1181 ft 132 kts 143°
2026-05-04 05:07 43.18810 -86.25403 1000 ft 130 kts 142°
2026-05-04 05:09 43.16252 -86.22388 635 ft 12 kts 317°
2026-05-04 05:09 43.16330 -86.22487 637 ft 18 kts 317°
2026-05-04 05:10 43.16425 -86.22608 638 ft 18 kts 317°
2026-05-04 05:10 43.16517 -86.22724 635 ft 18 kts 316°
2026-05-04 05:10 43.16607 -86.22836 634 ft 17 kts 317°
2026-05-04 05:10 43.16694 -86.22944 637 ft 16 kts 318°
2026-05-04 05:11 43.16776 -86.23048 634 ft 16 kts 317°
2026-05-04 05:11 43.16856 -86.23148 634 ft 15 kts 317°
2026-05-04 05:11 43.16926 -86.23249 635 ft 14 kts 287°
2026-05-04 05:11 43.16891 -86.23361 634 ft 14 kts 236°
2026-05-04 05:12 43.16827 -86.23491 636 ft 18 kts 236°
2026-05-04 05:12 43.16758 -86.23633 640 ft 18 kts 236°
2026-05-04 05:12 43.16695 -86.23745 641 ft 11 kts 204°
2026-05-04 05:12 43.16629 -86.23708 638 ft 10 kts 156°
2026-05-04 05:13 43.16575 -86.23754 636 ft 10 kts 237°
2026-05-04 05:13 43.16529 -86.23819 632 ft 9 kts 199°
2026-05-04 05:13 43.16514 -86.23824 632 ft 0 kts 189°